www.pogodaiklimat.ru

Погода и климат >> Архив погоды >> Россия >> Приморский край >> Чугуевка


ПОГОДА в Чугуевке

  • Прогноз погоды в Чугуевке
  • Монитор погоды в Чугуевке

АРХИВ ПОГОДЫ в Чугуевке

Время (UTC), дата Ветер
(напр.,м/с)
 
Видим.   Явления Облачность Т
(С)
Тd
(С)
f
(%)
Тe
(С)
Тes
(С)
Комфортность P
(гПа)
Po
(гПа)
Тmin
(С)
Tmax
(С)
R
(мм)
R24
(мм)
S
(см)
09 14.07 ЮВ 2 50 км 9/9 600 м
[Cb cap]
+19.1 +17.7 92 +21 +22 комфорт 1004.3 974.8 +24.6 2
12 14.07 ЮВ 1 н/о н/о +17.4 +16.2 93 +18 +18 1006.5 976.7
18 14.07 штиль 0 н/о н/о +15.3 +14.0 92 +15 +15 1008.4 978.3
21 14.07 штиль 0 50 км 8/5 1000 м
[Sc Ac trans]
+16.3 +14.8 91 +16 +17 1009.3 979.3 +15.2
00 15.07 ЮВ 3 н/о н/о +19.8 +13.9 69 +22 +22 комфорт 1010.1 980.4
06 15.07 ЮВ 3 н/о н/о +22.0 +14.5 62 +25 +25 комфорт 1010.5 981.0
09 15.07 ЮВ 2 50 км 8/8 600 м
[Cb cap]
+21.8 +13.7 60 +25 +25 комфорт 1010.6 981.1 +23.1
12 15.07 ЮВ 2 н/о н/о +17.6 +12.7 73 +18 +18 1012.9 982.9
18 15.07 Ю 1 н/о н/о +16.0 +13.5 85 +17 +17 1013.4 983.2
21 15.07 штиль 0 20 км 10/10 600 м
[Sc]
+15.8 +14.2 90 +16 +16 1014.3 984.1 +15.7
00 16.07 В 1 н/о н/о +18.1 +13.8 76 +19 +19 1014.4 984.4
09 16.07 Ю 1 50 км 6/6 1000 м
[Sc]
+22.6 +16.3 68 +27 +28 душно 1011.0 981.6 +24.0
21 16.07 ЮВ 1 50 км 4/0
[Ci]
+15.4 +14.2 93 +16 +17 1012.1 981.9 +14.4
00 17.07 ЮЗ 1 н/о н/о +21.9 +15.0 65 +25 +25 комфорт 1010.5 981.0
06 17.07 З 1 н/о н/о +27.6 +17.0 52 +31 +31 душно 1007.2 978.4
09 17.07 З 1 50 км 9/9 600 м
[Cb cap]
+24.7 +17.6 65 +29 +29 душно 1007.2 978.1 +27.6
12 17.07 штиль 0 н/о н/о +20.4 +16.2 77 +23 +23 комфорт 1009.3 979.7
18 17.07 ЮВ 1 н/о н/о +17.8 +16.0 89 +19 +19 1009.3 979.5
21 17.07 Ю 1 50 км 10/10 600 м
[Sc]
+17.3 +16.0 92 +18 +18 1009.0 979.2 +16.8
00 18.07 Ю 2 н/о н/о +23.7 +16.6 64 +27 +27 жарко 1007.8 978.5
06 18.07 Ю 2 н/о н/о +27.1 +18.3 59 +32 +32 очень
душно
1005.1 976.3
09 18.07 З 1 50 км 6/6 1000 м
[Sc diur, vesp]
+26.7 +18.7 62 +32 +32 очень
душно
1004.3 975.5 +28.6
21 18.07 Ю 1 50 км 10/0
[Ac und]
+18.2 +16.7 91 +20 +20 1007.3 977.6 +17.0
00 19.07 Ю 1 н/о н/о +23.4 +18.0 72 +29 +29 душно 1007.1 977.9
09 19.07 З 1 50 км ясно +28.3 +17.9 53 +33 +34 очень
душно
1006.1 977.4 +29.7
21 19.07 ЮВ 1 50 км ясно +17.3 +16.7 96 +18 +20 1011.1 981.2 +16.0
00 20.07 ЮВ 1 н/о н/о +25.6 +18.4 64 +30 +30 душно 1010.5 981.4
09 20.07 ЮВ 2 50 км 3/3 1000 м
[Cu med, cong]
+30.4 +17.1 45 +34 +35 очень
душно
1007.8 979.3 +33.8
21 20.07 С 1 50 км 6/6 1000 м
[Sc]
+22.3 +18.5 79 +28 +28 душно 1011.1 981.7 +19.3
00 21.07 ЮВ 2 н/о н/о +26.6 +19.6 65 +32 +32 очень
душно
1010.4 981.5

 

Местоположение метеостанции Чугуевка (Приморский край, Россия): широта 44.15 долгота 133.80 высота над уровнем моря 259 м.

В архиве по умолчанию представлена погода в Чугуевке за последнюю неделю. Архивные данные за месяц целиком и за предыдущие месяцы, начиная с января 2011 года, Вы можете получить, выбрав интересующий диапазон дат из раскрывающегося списка и нажав кнопку "Ввод!".


*Определитесь, кто Вы:
робот инопланетянин человек

Внимание! Время в таблицах - всемирное. Для получения местного времени необходимо прибавить поправку, которая равна 10 ч.

Смотрите также архив погоды в соседних городах и на ближайших метеорологических станциях:

Погода в Анучино (Приморский край, Россия) (67 км)
Погода в Лазо (Приморский край, Россия) (83 км)
Погода в Лучегорске (Приморский край, Россия) (87 км)
Погода в Спасск-Дальнем (Приморский край, Россия) (96 км)
Погода в Свиягино (Приморский край, Россия) (96 км)
Погода в Кавалерово (Приморский край, Россия) (96 км)
Погода в Кировском (Приморский край, Россия) (108 км)
Погода в Богополе (Приморский край, Россия) (128 км)
Погода в Ольге (Приморский край, Россия) (128 км)
Погода в Партизанске (Приморский край, Россия) (129 км)

Пояснения к столбцам:

Ветер - указаны скорость ветра в м/с - средняя за 10 мин, порывы в срок и между сроками (в фигурных скобках) и направление, откуда дует ветер: С - северный, СВ - северо-восточный, В - восточный, ЮВ - юго-восточный, Ю - южный, ЮЗ - юго-западный, З - западный, СЗ - северо-западный.
Видимость - горизонтальная дальность видимости в метрах или километрах. При видимости от 1 до 10 км при отсутствии осадков обычно наблюдается дымка, при ухудшении видимости до 1 км и менее - туман. В сухую погоду видимость может ухудшаться дымом, пылью или мглою.
Явления - указаны атмосферные явления, наблюдавшиеся в срок или в последний час перед сроком; фигурными скобками обозначены явления, наблюдавшиеся между сроками (за 1-3 часа до срока); квадратными скобками обозначены град или гололедные отложения с указанием их диаметра в мм.
Облачность - указаны через наклонную черту общая и нижняя облачность в баллах и высота нижней границы облаков в метрах; квадратными скобками обозначены формы облаков: Ci - перистые, Cs - перисто-слоистые, Cc - перисто-кучевые, Ac - высококучевые, As - высокослоистые, Sc - слоисто-кучевые, Ns - слоисто-дождевые, Cu - кучевые, Cb - кучево-дождевые. Подробнее классификацию облаков см. в Атласе облаков (PDF).
T - Температура воздуха - температура, измеренная на высоте 2 м над землей.
Td - Температура точки росы - температура, при понижении до которой содержащийся в воздухе водяной пар достигнет насыщения.
f - Относительная влажность воздуха - влажноcть воздуха, измеренная на высоте 2 м над землей.
Te - Эффективная температура - температура, которую ощущает одетый по сезону человек в тени. Характеристика душности погоды. При расчете учитывается влияние влажности воздуха и скорости ветра на теплоощущения человека.
Tes - Эффективная температура на солнце - температура, которую ощущает человек, с поправкой на солнечный нагрев. Характеристика знойности погоды. Зависит от высоты солнца над горизонтом, облачности и скорости ветра. Ночью, в пасмурную погоду, а также при ветре 12 м/с и более поправка равна нулю.
P - Атмосферное давление - приведенное к уровню моря атмосферное давление.
Po - Атмосферное давление - измеренное на уровне метеостанции атмосферное давление.
Tmin - Минимальная температура - минимум температуры воздуха на высоте 2 м над землей.
Tmax - Максимальная температура - максимум температуры воздуха на высоте 2 м над землей.
R - Количество осадков - Количество выпавших осадков за период времени, мм. При наведении курсора мыши на число - период времени, за который выпало указанное количество осадков.
R24 - Количество осадков - Количество выпавших осадков за 24 часа, мм.
S - Снежный покров - Высота снежного покрова, см. При наведении курсора мыши на число - состояние снежного покрова и степень покрытия местности в баллах.